Regional Weather Roundup
Issued by NWS

Home | Current Version | Previous Version | Text Only | Print | Product List | Glossary On
Versions: 1 2 3 4 5 6 7 8 9 10 11 12 13 14 15 16 17 18 19 20 21 22 23 24 25 26 27 28 29 30 31 32 33 34 35 36 37 38 39 40 41 42 43 44 45 46 47 48 49 50
000
ASUS43 KMKX 181900
RWRWI

WISCONSIN REGIONAL WEATHER ROUNDUP
NATIONAL WEATHER SERVICE MILWAUKEE/SULLIVAN WI
200 PM CDT FRI JUN 18 2021

NOTE: "FAIR" INDICATES FEW OR NO CLOUDS BELOW 12,000 FEET WITH NO
SIGNIFICANT WEATHER AND/OR OBSTRUCTIONS TO VISIBILITY.

WIZ001-002-006>008-014>016-023>028-182000-
NORTHWEST WISCONSIN

CITY           SKY/WX    TMP DP  RH WIND       PRES   REMARKS
SUPERIOR ARPT  NOT AVBL
ASHLAND        SUNNY     83  42  23 W21G36    29.73F HX  81
HAYWARD          N/A    N/A N/A N/A MISG      29.77F
SIREN          SUNNY     86  33  14 W15G23    29.79S HX  83
CUMBERLAND     SUNNY     81  32  17 W20       29.81F
RICE LAKE      SUNNY     84  40  21 W13G21    29.81F HX  81
CHETEK         CLOUDY    85  39  20 NW10G20   29.80F HX  82
LADYSMITH      SUNNY     83  42  23 W15G22    29.81S HX  80
EAU CLAIRE     NOT AVBL
MENOMONIE      SUNNY     82  36  19 W16G22    29.80F HX  80
NEW RICHMOND   SUNNY     86  32  14 NW10G16   29.82S HX  82
OSCEOLA        SUNNY     86  33  14 W13       29.84S HX  83
$$

WIZ003>005-009-010-017-018-182000-
NORTH CENTRAL WISCONSIN

CITY           SKY/WX    TMP DP  RH WIND       PRES   REMARKS
MANITOWISH WTR MOSUNNY   82  41  24 NW18G24   29.75F HX  80
ARBOR VITAE    NOT AVBL
WOODRUFF       NOT AVBL
RHINELANDER    SUNNY     82  42  24 W14G25    29.77F HX  80
EAGLE RIVER    SUNNY     80  37  21 W16G25    29.75S
LAND O LAKES   SUNNY     81  36  19 W14G26    29.76S
PHILLIPS       SUNNY     79  45  29 W7G17     29.77F
TOMAHAWK       SUNNY     79  39  23 NW13G22   29.78F
MEDFORD        SUNNY     78  41  26 W12G21    29.79F
MERRILL        SUNNY     81  43  26 W15G22    29.77S HX  80
$$

WIZ029-030-035-036-043>047-182000-
CENTRAL WISCONSIN

CITY           SKY/WX    TMP DP  RH WIND       PRES   REMARKS
WAUSAU         SUNNY     87  41  19 W20G35    29.76S HX  84
MOSINEE        SUNNY     84  45  24 NW17G26   29.79S HX  82
MARSHFIELD     SUNNY     83  48  29 NW14G23   29.80S HX  81
STEVENS POINT  SUNNY     82  44  26 W12G22    29.79S HX  80
WAUPACA        SUNNY     88  42  20 NW16G24   29.76S HX  85
WAUTOMA        SUNNY     88  50  27 NW16G24   29.77  HX  85
WISC RAPIDS    SUNNY     86  51  29 NW12      29.79F HX  84
CAMP DOUGLAS   NOT AVBL
$$

WIZ011>013-019>022-031-037>040-048>050-182000-
NORTHEAST WISCONSIN

CITY           SKY/WX    TMP DP  RH WIND       PRES   REMARKS
ANTIGO         SUNNY     80  42  26 W18G26    29.78R
SHAWANO        SUNNY     88  44  21 W14G26    29.72S HX  84
OCONTO         SUNNY     89  42  19 NW16G22   29.68S HX  85
STURGEON BAY   SUNNY     87  46  24 W18G26    29.69R HX  84
GREEN BAY      SUNNY     90  46  21 W20G33    29.71R HX  86
MANITOWOC      SUNNY     86  60  41 W15G22    29.72S HX  86
APPLETON       MOSUNNY   86  45  23 W20       29.74R HX  83
CLINTONVILLE   SUNNY     88  37  16 W18G28    29.73R HX  85
OSHKOSH        NOT AVBL
$$

WIZ032>034-041-042-053>061-182000-
SOUTHWEST WISCONSIN

CITY           SKY/WX    TMP DP  RH WIND       PRES   REMARKS
LA CROSSE      SUNNY     88  57  34 NW10      29.80S HX  87
SPARTA           N/A     85  53  32 W10       29.81S HX  83
VIROQUA        NOT AVBL
BOSCOBEL       SUNNY     89  58  34 W9        29.81R HX  88
PRAIRIE DU CHI SUNNY     87  58  38 SW3       29.81S HX  86
PLATTEVILLE    MOSUNNY   85  66  52 W5        29.83F HX  87
$$

WIZ056-057-062-063-064-067-068-182000-
SOUTH CENTRAL WISCONSIN

CITY           SKY/WX    TMP DP  RH WIND       PRES   REMARKS
REEDSBURG      MOSUNNY   86  58  38 W10G16    29.79F HX  85
BARABOO/DELLS  MOSUNNY   83  56  38 NW10G16   29.80S HX  83
LONE ROCK      NOT AVBL
MINERAL POINT  SUNNY     82  57  42 W8        29.83S HX  82
MADISON        MOSUNNY   85  63  47 W6        29.79S HX  86
MIDDLETON      MOSUNNY   86  64  46 W3        29.81S HX  87
WATERTOWN      MOSUNNY   84  64  51 W7        29.78F HX  85
MONROE         MOSUNNY   87  52  29 CALM      29.81S HX  85
JANESVILLE     MOSUNNY   88  61  40 N8        29.79F HX  88
$$

WIZ051-052-058>065-066-070>072-182000-
SOUTHEAST WISCONSIN

CITY           SKY/WX    TMP DP  RH WIND       PRES   REMARKS
MILWAUKEE      PTSUNNY   90  57  32 NW9       29.76S HX  88
WAUKESHA       SUNNY     84  57  39 W9        29.79F HX  83
MILWAUKEE/TIMM SUNNY     86  46  25 NW12G18   29.77F HX  83
RACINE         MOSUNNY   87  65  47 VRB3      29.77F HX  89
KENOSHA        MOSUNNY   88  64  44 NW6       29.76F HX  89
FOND DU LAC    MOSUNNY   89  58  34 W16G24    29.76S HX  88
SHEBOYGAN      MOSUNNY   85  64  49 W13G21    29.74F HX  86
WEST BEND      MOSUNNY   82  61  47 W14G22    29.78S HX  83
JUNEAU         MOSUNNY   82  65  55 SW8       29.79F HX  84
$$

LSZ147-162-182000-
LAKE SUPERIOR

STATION/POSITION TIME  TEMP    WIND        PRES    WAVE
                       AIR SEA DIR/SP/G            HT/PER
                 (UTC) (F)     (DEG/KT/KT) (MB)    (FT/S)
W MID LAKE BUOY  1840   50 40  250/ 14/ 16 1005.1S
DEVILS ISLAND    1800   63     250/ 20/ 25 1005.1R
PORT WING        1830   72     260/ 12/ 19 1006.8S
SAXON HARBOR     1840   79     290/ 17/ 25 1005.8F
$$

LMZ867-665-643>646-182000-
LAKE MICHIGAN

STATION/POSITION TIME  TEMP    WIND        PRES    WAVE
                       AIR SEA DIR/SP/G            HT/PER
                 (UTC) (F)     (DEG/KT/KT) (MB)    (FT/S)
CHAMBERS ISLAND  1840   82     260/  3/ 17   N/A
S GREEN BAY BUOY 1830   79 69  270/ 14/ 16 1004.3R   2/ 3
NORTHPORT PIER   1830   82     270/ 13/ 18 1004.7S
KEWAUNEE LAKESHO 1830   88     290/ 12/ 20 1004.3R
SHEBOYGAN LAKESH 1800   82     270/ 13/ 16   N/A
PORT WASHINGTON  1840   85     260/  7/ 14 1008.5F
ATWATER BUOY     1830   77 63   20/  6/  8 1008.3F   1/ 4
MILWAUKEE LAKESH 1830   82      50/  4/  5   N/A
KENOSHA   LAKESH 1800   82     320/  8/ 13 1007.8
$$

TC  - TEMPERATURE IN CELSIUS
VSB - VISIBILITY IN STATUTE MILES
WCI - WIND CHILL INDEX
HX  - HEAT INDEX




USA.gov is the U.S. government's official web portal to all federal, state and local government web resources and services.